Temp_Advection
nan nan nan nan nan nan nan nan nan nan nan nan nan nan nan nan nan nan nan nan nan nan nan nan nan nan nan nan nan nan nan nan nan nan nan nan nan nan
nan 0 1 0 0 0 0 1 0 -0 -1 -1 1 1 -1 -0 0 1 1 0 0 0 0 0 0 0 0 0 0 0 0 0 0 0 0 0 0 nan
nan 1 0 -1 0 0 0 1 0 -0 -0 -0 0 0 -0 -0 1 1 0 -0 0 0 0 0 0 0 0 -0 0 -0 0 0 0 0 0 0 0 nan
nan 1 -1 -0 1 -0 0 1 0 -0 -0 -0 0 0 0 0 0 0 0 0 -0 -0 0 0 0 0 0 -0 0 0 0 0 0 0 0 0 0 nan
nan 0 -0 1 -0 0 1 0 -0 0 0 0 0 0 0 0 0 0 0 0 -0 0 0 0 0 0 0 0 0 0 -0 0 0 0 0 1 1 nan
nan 1 1 -1 -0 0 -0 -1 0 1 0 0 0 0 -0 0 0 0 0 0 0 0 0 0 0 0 0 0 0 0 0 -0 0 0 0 0 1 nan
nan 2 -0 -0 0 0 0 1 1 0 0 -0 0 -0 -0 -0 -0 0 1 0 0 0 0 0 0 0 0 0 0 0 0 0 0 0 0 0 0 nan
nan 1 -0 -0 0 0 0 0 0 1 0 -1 0 -0 -1 -1 -0 1 1 0 -0 -0 -0 0 0 -0 0 1 1 0 0 0 0 -0 0 -0 -0 nan
nan -0 -0 0 -0 -1 1 2 1 -0 0 1 0 -0 -0 -0 1 1 0 0 -0 -0 1 0 0 0 0 0 1 1 0 0 -0 0 -0 -0 -0 nan
nan -0 0 -1 -1 0 2 1 -0 0 1 1 -1 0 -0 0 1 1 1 1 0 0 1 0 -0 0 0 0 0 1 0 0 0 -0 -0 0 0 nan
nan -0 1 -0 -1 1 2 1 -0 -0 0 -0 -0 1 1 1 0 0 1 0 -1 -0 1 0 -0 0 0 1 1 1 0 -0 0 0 0 0 0 nan
nan -0 0 0 0 1 0 -0 -0 0 0 -0 0 1 -0 -0 0 0 0 0 1 0 0 0 -0 1 -0 -0 1 1 -0 0 0 0 0 1 1 nan
nan 0 -0 -1 0 -0 0 1 -0 0 0 0 0 0 0 0 0 0 0 1 0 -0 0 1 0 0 1 1 -0 0 1 0 0 0 0 0 1 nan
nan -0 -0 -1 -0 1 1 0 0 1 0 0 0 0 0 0 0 1 0 1 0 1 0 0 1 0 1 1 0 0 0 0 0 0 0 0 1 nan
nan -1 -1 -1 0 1 1 0 0 0 0 0 0 1 0 0 1 1 1 1 0 0 0 1 1 1 0 0 0 0 0 0 0 0 0 0 1 nan
nan -0 -0 0 0 1 1 0 0 -0 0 1 1 1 1 1 0 0 1 0 0 1 1 1 1 1 0 0 0 0 0 1 0 0 1 0 1 nan
nan 0 1 1 1 2 0 1 0 1 1 1 1 1 1 0 0 1 1 1 1 0 1 1 1 1 0 0 1 0 0 1 1 1 0 0 0 nan
nan 3 3 2 1 1 0 1 1 1 1 1 1 1 0 0 1 1 1 1 0 1 2 1 1 1 1 1 1 1 0 0 1 0 0 0 1 nan
nan 2 3 3 4 2 2 1 1 1 1 1 1 1 1 1 1 1 1 1 1 2 1 1 1 1 1 1 1 0 1 1 0 0 0 0 0 nan
nan 2 1 0 3 3 4 3 3 2 2 2 2 1 1 1 1 1 2 2 2 1 1 1 1 1 1 1 1 1 1 0 0 0 1 0 0 nan
nan 2 2 1 1 2 2 2 3 3 3 3 3 2 2 2 2 2 2 2 1 1 1 1 1 1 1 1 0 0 0 0 0 0 0 0 -0 nan
nan 1 1 1 1 1 2 1 1 1 2 1 1 1 2 2 2 1 1 1 1 1 1 1 0 0 0 0 0 0 0 0 0 -0 0 0 0 nan
nan nan nan nan nan nan nan nan nan nan nan nan nan nan nan nan nan nan nan nan nan nan nan nan nan nan nan nan nan nan nan nan nan nan nan nan nan nan
Wind_Speed
60 56 55 54 54 52 47 41 36 29 36 38 46 39 40 38 36 35 35 33 32 30 30 27 26 24 25 24 23 23 23 28 28 28 24 27 26 20
58 54 56 57 53 50 51 49 42 37 32 30 31 43 42 41 43 39 39 36 35 34 32 32 29 27 29 29 29 29 27 27 27 26 29 35 31 30
60 57 57 54 56 52 49 51 48 41 36 31 23 27 30 25 30 37 38 37 36 37 34 34 32 31 30 31 33 33 33 33 31 32 31 29 30 34
55 55 53 49 55 56 54 52 51 45 40 35 29 27 24 25 23 26 29 31 32 29 31 32 29 28 26 25 24 26 32 35 36 36 35 34 33 30
53 57 54 52 56 57 57 53 51 51 46 39 38 32 27 26 27 27 28 28 25 22 21 23 23 23 23 23 25 27 28 30 32 32 33 34 35 36
57 55 59 58 55 56 54 51 49 54 50 47 43 37 34 31 30 29 30 29 28 26 25 25 24 24 25 27 27 27 28 29 30 30 30 32 32 33
59 60 55 59 55 52 52 50 50 51 53 51 50 43 39 37 37 36 34 31 30 28 28 27 28 28 28 28 29 28 28 29 29 31 31 30 29 30
56 58 56 59 56 54 48 47 49 52 51 47 47 46 44 40 36 36 33 34 34 31 32 30 30 30 31 31 32 31 30 31 31 31 30 31 31 29
59 57 60 59 55 50 49 52 50 49 46 43 45 46 44 41 39 37 35 35 34 34 32 30 29 30 28 26 30 31 32 31 30 29 28 29 29 30
61 58 56 58 55 52 48 50 48 51 48 46 47 45 41 38 37 34 32 34 35 34 34 36 28 29 29 29 30 30 30 28 27 27 27 27 26 27
56 56 54 57 50 51 54 49 50 50 49 46 40 43 43 39 36 35 34 32 31 29 25 27 27 29 30 29 29 29 28 25 26 27 27 26 27 29
51 51 49 50 53 46 45 49 49 51 48 45 42 44 44 37 36 30 29 29 29 27 26 28 29 30 31 31 32 28 27 25 26 27 27 28 29 28
47 51 51 47 47 51 47 48 51 46 49 45 42 44 41 35 32 29 30 29 30 29 27 26 25 26 29 26 21 27 24 21 20 22 21 23 23 25
46 52 48 46 44 44 43 45 45 50 41 43 40 39 36 33 32 31 29 30 29 29 26 27 29 29 28 28 31 23 21 22 22 23 24 23 21 21
52 48 47 44 43 41 43 42 39 41 38 38 37 36 34 32 29 28 31 32 32 32 30 31 29 28 26 25 24 23 23 25 24 23 22 22 23 23
54 49 50 44 44 45 44 43 42 40 38 36 34 32 30 30 30 31 31 32 35 36 33 31 29 27 27 27 26 25 25 24 23 22 22 23 23 23
48 53 43 45 50 49 48 51 46 42 38 34 32 32 31 30 33 32 34 33 33 32 34 33 30 28 28 27 27 25 27 26 25 24 22 21 22 23
36 36 46 45 42 42 48 41 39 36 36 33 32 30 31 32 34 34 32 31 32 34 34 31 29 29 27 25 25 24 22 21 20 20 20 20 21 22
30 24 29 30 37 38 46 38 43 38 30 30 31 30 30 30 30 32 34 33 31 31 30 27 27 25 23 23 18 20 20 18 17 17 18 20 20 20
29 24 17 14 20 26 31 31 34 33 33 32 30 32 32 31 31 30 30 33 30 28 25 23 21 20 19 17 15 15 13 13 14 16 17 17 18 20
40 37 32 26 23 23 20 20 19 22 25 26 26 26 26 26 27 26 25 23 22 21 20 18 17 16 15 13 11 10 11 12 14 14 15 15 16 18
45 42 38 33 31 30 28 27 26 24 22 20 19 18 18 18 20 20 18 18 17 16 15 13 12 10 9 9 9 9 9 10 11 12 13 15 15 12
40 37 36 34 33 32 32 32 31 30 28 26 24 23 20 21 19 18 17 15 13 12 10 10 8 6 5 5 5 7 9 10 11 11 13 14 15 16
Wind_Direction
229 231 234 229 230 231 233 237 235 226 228 230 227 232 225 229 226 232 240 236 239 243 246 247 250 251 253 254 263 263 266 266 263 265 252 265 263 265
231 231 234 232 233 234 235 238 239 240 244 249 240 229 232 237 240 240 236 238 241 246 247 248 250 248 254 255 259 263 264 265 267 265 268 276 264 265
232 229 229 232 236 236 235 235 235 236 239 246 244 226 228 234 238 237 236 239 241 243 246 249 250 249 253 254 253 256 259 259 259 262 265 272 269 266
238 235 227 232 235 238 238 234 232 230 234 237 233 221 231 233 233 227 229 233 238 242 245 245 249 251 252 253 255 256 252 255 258 261 261 266 267 266
232 233 228 228 231 235 236 234 231 231 231 232 235 236 242 237 226 226 229 233 235 235 232 237 240 243 246 251 258 262 260 260 263 264 264 262 263 266
238 232 231 232 228 231 232 230 226 227 228 231 233 238 243 238 229 231 232 232 235 236 237 243 245 250 253 256 261 266 262 258 259 261 264 263 262 261
234 233 234 233 230 232 232 231 227 228 229 229 234 237 237 230 227 229 233 238 244 245 245 245 249 252 255 261 268 269 262 260 260 262 264 264 264 265
230 233 237 233 232 229 231 237 233 228 226 225 228 229 230 230 232 236 237 240 244 247 248 250 254 257 258 258 265 271 264 260 261 265 266 267 267 263
231 229 225 233 235 232 229 237 236 231 229 226 227 227 229 229 232 235 239 243 248 253 257 257 260 259 263 266 270 267 266 264 261 261 263 264 263 262
226 226 228 230 227 229 229 229 228 230 226 227 227 231 234 240 239 241 250 250 252 250 259 262 257 269 270 266 262 259 262 259 259 263 265 264 264 261
225 227 228 227 232 233 231 227 227 229 228 227 228 232 240 241 241 241 242 247 245 249 240 255 266 266 271 273 266 262 257 253 260 260 261 260 264 263
222 223 228 231 230 230 229 230 229 230 229 224 227 231 236 237 238 234 236 234 235 243 246 252 262 263 267 264 264 256 246 257 253 259 262 263 262 257
214 221 224 226 225 228 230 234 230 230 230 232 224 226 227 226 225 229 236 237 240 246 254 257 262 259 260 253 259 248 247 250 256 256 258 264 264 258
215 217 220 224 225 230 231 234 236 231 223 222 219 221 219 225 225 232 240 244 247 253 254 257 259 257 258 255 246 244 254 260 259 258 257 267 266 254
237 226 222 225 226 225 233 222 223 224 219 216 215 218 220 224 228 231 236 247 248 247 250 253 249 249 243 238 239 243 255 254 254 259 262 255 259 258
224 229 228 229 226 222 226 217 211 212 211 214 213 216 223 228 234 239 233 242 244 245 244 245 243 243 240 241 245 250 257 254 254 258 254 253 254 251
208 209 222 226 217 218 222 209 202 205 206 214 218 222 230 236 233 234 238 237 236 241 242 237 237 235 234 243 249 251 254 252 253 251 249 249 254 254
194 203 203 201 202 210 210 199 198 205 213 219 225 230 230 234 236 230 229 232 244 244 234 231 229 231 235 240 245 246 245 246 249 252 252 255 255 260
174 172 174 190 198 199 196 205 208 201 207 219 222 227 228 231 232 235 235 231 229 228 229 230 227 223 224 228 232 234 238 240 243 249 255 261 266 266
122 131 140 121 150 175 177 189 199 209 206 209 218 223 227 228 225 222 221 221 218 216 215 216 215 218 222 228 223 225 226 245 253 258 259 260 264 265
88 94 100 108 107 123 139 158 171 184 194 199 204 209 210 212 211 212 207 206 204 201 199 202 203 208 210 214 218 231 247 258 262 266 270 275 277 277
78 81 87 93 98 103 110 115 122 124 127 135 141 149 160 168 170 171 172 173 173 176 176 179 184 193 204 219 235 246 255 263 270 274 278 281 285 283
74 76 79 82 86 90 95 100 103 105 108 112 114 115 120 125 130 135 137 141 145 147 152 161 170 184 201 218 241 254 264 274 282 288 292 291 289 288
Height
1486 1492 1497 1501 1506 1511 1518 1521 1525 1524 1524 1526 1531 1535 1540 1544 1547 1551 1554 1556 1559 1561 1564 1566 1568 1570 1571 1573 1574 1575 1576 1575 1575 1576 1575 1577 1578 1578
1473 1479 1487 1493 1497 1502 1508 1513 1518 1520 1519 1521 1523 1528 1533 1537 1539 1543 1546 1550 1552 1554 1557 1560 1561 1564 1565 1566 1568 1569 1570 1571 1571 1571 1571 1569 1568 1571
1461 1466 1475 1481 1485 1493 1498 1504 1509 1512 1514 1517 1519 1524 1527 1529 1531 1535 1539 1543 1545 1547 1549 1552 1554 1556 1558 1559 1560 1562 1563 1564 1565 1565 1565 1565 1565 1565
1452 1457 1461 1466 1472 1481 1487 1493 1498 1503 1507 1510 1515 1518 1521 1523 1525 1528 1531 1535 1537 1540 1542 1544 1546 1548 1551 1552 1552 1553 1554 1555 1557 1557 1558 1559 1559 1559
1439 1445 1452 1455 1462 1468 1475 1482 1488 1494 1499 1502 1508 1512 1514 1517 1520 1523 1526 1529 1531 1534 1536 1539 1540 1542 1544 1545 1545 1546 1547 1548 1550 1550 1550 1550 1551 1551
1428 1434 1440 1445 1450 1456 1463 1470 1477 1483 1488 1493 1499 1503 1507 1510 1513 1517 1520 1522 1525 1527 1530 1533 1535 1536 1537 1539 1539 1540 1540 1540 1541 1542 1542 1542 1542 1543
1415 1422 1427 1433 1439 1446 1453 1461 1468 1473 1477 1483 1489 1493 1497 1500 1503 1507 1511 1516 1519 1521 1523 1524 1527 1529 1530 1532 1532 1532 1532 1534 1534 1534 1534 1534 1535 1535
1403 1409 1416 1422 1430 1434 1443 1451 1457 1462 1466 1470 1477 1481 1487 1491 1496 1500 1505 1509 1511 1513 1515 1516 1519 1519 1522 1523 1524 1525 1525 1525 1526 1527 1527 1527 1527 1527
1391 1396 1404 1411 1420 1426 1432 1439 1447 1454 1460 1463 1467 1471 1478 1482 1487 1492 1497 1500 1502 1505 1506 1507 1510 1511 1513 1514 1515 1516 1516 1517 1519 1519 1518 1519 1519 1520
1377 1382 1391 1400 1406 1413 1420 1428 1435 1443 1448 1453 1459 1465 1469 1476 1481 1485 1489 1492 1495 1496 1498 1497 1501 1502 1505 1505 1506 1507 1507 1508 1510 1511 1511 1511 1512 1512
1365 1371 1380 1389 1393 1403 1409 1413 1423 1430 1439 1443 1449 1456 1462 1467 1472 1474 1478 1482 1483 1486 1488 1490 1493 1494 1496 1497 1498 1498 1499 1501 1503 1504 1504 1504 1505 1505
1351 1361 1367 1376 1385 1393 1399 1407 1412 1417 1426 1433 1438 1446 1450 1456 1460 1463 1470 1472 1474 1478 1482 1483 1485 1489 1487 1487 1490 1490 1491 1494 1495 1496 1497 1497 1497 1497
1339 1351 1359 1367 1373 1384 1391 1396 1400 1409 1417 1424 1428 1435 1440 1445 1450 1455 1460 1463 1466 1468 1472 1474 1476 1479 1479 1480 1481 1483 1484 1486 1488 1489 1490 1490 1490 1490
1333 1342 1349 1356 1365 1373 1381 1387 1392 1398 1405 1413 1418 1424 1430 1436 1442 1448 1452 1456 1458 1461 1463 1465 1466 1470 1473 1473 1475 1477 1479 1481 1482 1483 1483 1484 1485 1484
1330 1333 1340 1349 1356 1366 1372 1380 1385 1391 1397 1403 1408 1416 1423 1429 1434 1438 1443 1446 1449 1452 1454 1456 1458 1461 1464 1466 1468 1470 1473 1474 1475 1476 1477 1477 1478 1478
1323 1326 1334 1341 1348 1355 1363 1370 1375 1381 1389 1396 1402 1410 1417 1421 1424 1428 1433 1438 1440 1443 1444 1448 1451 1454 1456 1459 1461 1464 1466 1467 1467 1469 1469 1469 1471 1472
1306 1315 1323 1331 1337 1343 1351 1355 1363 1373 1381 1388 1395 1401 1407 1412 1415 1419 1423 1427 1430 1434 1437 1440 1443 1446 1449 1453 1454 1456 1458 1459 1460 1461 1462 1463 1465 1466
1297 1305 1312 1318 1321 1331 1341 1345 1355 1363 1370 1379 1387 1393 1399 1403 1407 1410 1414 1418 1422 1426 1429 1432 1436 1440 1443 1446 1448 1449 1451 1453 1454 1455 1456 1457 1459 1460
1295 1304 1304 1310 1317 1328 1329 1339 1350 1356 1363 1372 1380 1385 1390 1395 1398 1402 1406 1410 1414 1419 1423 1427 1430 1432 1435 1438 1442 1444 1445 1447 1448 1450 1451 1452 1453 1454
1296 1300 1309 1311 1317 1323 1326 1336 1344 1351 1356 1365 1371 1377 1382 1385 1389 1394 1399 1404 1407 1412 1416 1421 1424 1428 1431 1435 1437 1439 1441 1443 1444 1445 1447 1446 1446 1447
1304 1304 1308 1319 1323 1322 1326 1335 1340 1346 1352 1358 1365 1369 1374 1377 1383 1389 1395 1398 1403 1408 1413 1417 1421 1424 1428 1431 1434 1436 1438 1439 1440 1441 1442 1442 1441 1441
1313 1321 1325 1332 1333 1335 1335 1338 1345 1351 1354 1358 1363 1368 1372 1376 1381 1387 1391 1397 1402 1407 1410 1415 1419 1423 1426 1428 1431 1432 1434 1435 1436 1437 1437 1437 1437 1437
1333 1339 1341 1344 1346 1348 1349 1351 1354 1357 1360 1363 1366 1370 1377 1379 1384 1389 1393 1398 1403 1407 1410 1415 1418 1422 1424 1426 1429 1430 1431 1431 1432 1433 1433 1433 1433 1432